Theta_e
323 326 330 330 339 343 345 349 349 349 350 348 344 342 339 340 344 349 354 357 355 352 351 346 349 344 343 339 341 339 337 337 339 336 334 338 338 339 337 337 337 337 337
321 324 325 328 339 340 343 346 349 351 349 344 343 343 343 340 341 348 354 356 356 352 350 349 345 346 343 341 342 338 335 338 339 332 333 326 329 334 336 336 336 336 336
317 322 325 332 337 337 341 342 343 344 345 344 345 348 348 349 349 352 352 353 354 353 351 349 347 347 343 340 340 340 336 332 336 339 332 323 319 324 332 334 332 332 335
318 319 322 325 332 335 337 344 345 342 343 348 344 344 338 337 344 352 351 351 352 351 350 349 347 349 343 342 341 340 338 336 335 336 337 333 330 320 319 327 329 331 333
317 318 320 322 326 327 328 332 335 340 343 344 344 341 346 345 351 350 354 350 352 350 347 348 346 348 342 342 339 340 338 338 338 334 332 331 329 328 321 317 322 329 330
314 316 319 322 322 326 329 333 338 339 345 345 349 347 345 343 346 351 346 346 346 345 344 346 344 345 342 343 342 340 341 341 338 334 332 329 325 323 323 321 321 322 327
317 317 316 317 321 324 326 333 340 343 344 344 344 347 343 353 353 351 345 343 342 342 341 342 344 341 344 346 346 343 340 339 335 334 332 332 329 328 327 324 321 319 324
316 318 321 324 321 323 329 332 333 337 340 343 347 349 348 352 354 348 344 342 340 341 343 344 343 344 345 346 344 341 339 338 336 335 333 332 331 332 329 325 322 318 320
315 318 319 324 322 324 332 334 336 337 345 348 348 351 351 354 349 348 344 343 343 342 342 346 345 346 344 343 341 339 338 338 336 335 335 332 333 333 331 329 327 321 315
315 318 323 326 330 334 342 347 349 347 347 348 350 350 351 353 349 347 344 346 347 346 345 345 344 343 342 340 341 339 338 337 336 335 333 333 332 333 331 329 326 326 321
321 329 325 328 337 342 345 347 346 346 345 346 347 350 350 349 350 348 346 347 347 345 344 343 341 340 340 340 338 338 335 334 334 334 331 333 333 331 331 328 328 325 324
326 330 331 333 335 340 342 344 345 344 344 344 343 343 343 343 343 343 342 344 344 343 341 341 338 337 337 338 337 335 334 332 333 332 331 332 334 331 330 330 326 326 326
325 330 331 332 336 336 339 340 340 341 342 342 343 342 341 339 338 338 342 343 342 342 338 337 335 333 334 334 337 335 334 333 332 332 330 331 331 329 329 330 327 327 329
325 330 333 334 336 335 337 337 339 341 341 340 339 338 338 339 339 341 341 339 338 337 335 336 333 334 333 335 335 334 333 333 331 333 331 331 331 330 330 329 329 329 327
323 329 331 333 335 334 336 335 336 339 341 338 336 337 338 338 339 338 338 337 336 335 334 335 332 335 329 330 334 336 334 332 329 331 332 331 330 326 329 333 331 329 327
318 326 329 329 330 333 332 333 336 337 338 337 337 337 337 336 336 336 333 336 336 335 331 332 332 333 327 306 309 324 333 332 331 328 330 327 320 317 316 318 322 327 325
320 320 328 329 333 330 331 333 333 334 333 332 332 332 333 331 331 332 332 335 335 334 332 331 332 331 324 305 307 314 333 333 331 331 330 331 329 327 326 312 314 315 314
321 320 330 331 334 329 331 331 330 329 329 329 328 330 330 330 331 331 332 335 334 335 334 333 333 329 319 305 308 315 331 332 332 332 331 331 330 328 328 329 328 327 325
319 327 331 332 333 327 329 329 329 329 328 328 328 330 330 329 329 330 332 334 333 333 334 334 334 328 323 305 309 320 327 328 328 325 324 329 327 308 308 326 322 319 316
320 324 330 331 334 327 331 329 328 329 328 328 328 330 329 329 330 330 333 334 334 334 334 332 333 318 324 304 307 317 322 320 320 325 322 306 315 305 309 325 321 317 317
324 325 330 330 332 331 332 329 329 329 329 328 329 328 329 329 330 332 333 333 334 333 332 331 331 329 325 317 306 309 325 323 322 321 321 315 300 302 304 311 321 316 318
320 331 329 328 330 332 331 329 329 331 331 328 327 330 332 329 331 332 334 333 334 331 330 328 328 327 325 308 306 307 310 314 322 321 317 310 297 299 301 310 300 302 311
322 329 330 329 328 331 331 330 332 332 328 328 329 329 328 329 332 333 333 329 333 331 330 327 326 323 321 316 300 301 304 304 321 320 303 296 296 297 300 298 300 306 317
323 329 328 324 328 331 333 332 330 331 330 330 329 329 330 330 332 333 334 334 334 333 331 328 327 322 320 322 320 317 315 308 310 306 312 306 304 307 307 310 313 318 318
326 328 326 324 328 330 331 329 331 329 330 329 329 328 330 329 325 317 315 328 315 323 330 330 328 323 320 321 315 317 322 320 313 315 317 316 314 313 315 318 319 318 318
325 326 326 325 326 328 329 329 330 330 329 327 329 328 328 332 329 326 320 297 296 296 296 302 321 326 309 300 299 300 301 302 300 319 317 316 315 315 316 317 319 319 317
Wind_Speed
22 19 14 17 8 9 9 9 7 7 4 4 4 5 7 7 7 7 8 6 9 11 13 10 6 10 7 9 7 5 7 5 3 2 2 2 6 7 8 5 5 5 5
22 19 21 15 7 8 9 9 9 10 8 7 6 5 6 8 8 7 7 7 8 11 10 10 10 9 7 8 6 8 5 4 4 3 1 4 6 9 7 2 3 5 4
21 16 12 9 8 9 9 10 10 10 10 12 7 6 6 4 5 5 6 6 7 9 9 10 8 7 9 7 7 6 7 5 4 6 3 3 2 2 2 5 4 5 3
15 17 16 14 8 6 5 7 10 13 13 12 9 9 9 7 6 4 6 6 7 7 9 9 10 6 9 6 8 6 5 4 5 3 4 7 2 2 1 1 2 2 4
17 18 16 14 12 12 12 12 13 13 14 13 13 10 8 6 4 4 9 8 6 7 6 8 10 5 7 7 9 9 9 7 4 4 4 4 4 4 3 3 1 1 4
25 22 19 17 17 15 14 12 13 13 12 11 12 9 8 8 5 7 7 6 6 5 7 7 6 6 6 7 8 8 9 5 4 5 4 4 4 3 2 1 2 3 2
15 18 21 19 18 15 13 8 8 9 10 12 10 12 11 9 7 9 8 9 6 5 7 6 6 5 7 7 6 6 5 5 5 5 1 1 3 2 1 2 3 1 1
15 9 6 6 9 11 10 8 7 8 8 9 12 9 12 6 5 9 8 7 6 7 8 8 8 9 7 5 6 5 5 6 4 4 2 2 2 3 3 3 3 1 1
10 8 12 10 12 11 10 9 9 11 10 10 8 9 9 7 10 10 10 8 9 8 9 11 10 8 8 8 7 4 5 6 5 3 3 0 1 0 2 3 2 2 2
9 13 12 12 9 5 8 6 6 8 7 8 9 9 9 9 11 11 12 12 9 11 11 9 8 7 7 8 6 5 4 6 4 3 3 3 3 4 2 4 3 2 2
10 14 16 12 11 8 10 9 9 11 11 9 8 10 9 12 12 10 8 10 10 10 10 8 8 7 7 6 5 2 7 6 6 4 4 5 5 3 3 3 3 3 2
4 7 8 9 11 13 13 12 12 12 11 11 11 10 11 11 12 10 8 9 10 10 10 8 6 6 6 5 5 5 5 6 6 6 6 6 4 4 5 4 5 4 3
5 9 9 14 15 14 15 14 16 14 11 11 10 11 11 11 9 8 8 8 7 6 7 6 6 6 7 8 6 4 3 4 5 6 7 5 6 5 2 4 5 4 4
3 2 9 8 18 13 15 15 17 16 14 11 10 10 10 10 10 9 8 7 6 6 6 6 7 5 7 5 5 4 4 4 4 2 5 5 7 6 6 6 6 5 5
3 7 8 9 8 17 12 15 16 17 16 15 10 11 9 8 9 8 7 6 6 6 7 5 7 8 9 6 5 3 4 4 4 6 4 1 3 4 4 4 5 7 6
6 7 3 11 12 16 14 17 16 15 14 16 14 12 11 10 9 7 7 6 6 6 8 7 8 8 7 5 7 5 4 4 4 5 6 7 11 10 9 9 5 9 8
2 3 5 19 5 7 12 15 15 13 12 11 11 11 10 9 7 6 5 5 8 6 7 8 8 9 7 6 7 6 3 4 2 5 5 5 5 9 8 9 12 11 9
2 2 6 0 5 9 15 14 13 12 12 12 11 13 12 11 7 5 3 8 7 7 6 7 9 8 5 5 5 6 5 5 5 5 3 7 5 7 8 7 8 8 6
7 4 7 2 2 12 15 13 13 13 12 13 14 13 12 9 6 5 7 7 7 6 5 6 9 9 6 5 6 6 5 6 6 6 6 8 8 8 5 7 10 9 8
10 7 7 6 2 11 12 12 13 11 15 12 12 12 12 10 9 9 7 6 6 5 6 8 9 10 6 5 6 6 4 5 4 4 7 12 8 8 10 10 10 10 8
9 9 9 8 3 12 11 11 15 12 11 9 10 13 8 8 8 8 6 6 5 8 8 10 8 8 7 5 7 5 4 4 5 3 5 5 8 11 11 11 9 10 10
10 16 12 9 6 13 11 14 13 10 11 12 12 12 9 10 9 9 6 4 6 7 7 9 7 6 6 4 5 6 4 4 5 5 5 4 9 10 12 10 15 14 11
5 12 17 10 12 13 13 14 11 11 13 13 10 9 7 5 6 8 6 5 6 6 6 8 7 6 4 3 9 8 6 5 6 6 7 9 13 14 12 14 14 10 7
8 11 14 12 13 11 14 11 9 11 16 13 10 7 5 7 6 5 4 3 4 3 5 6 6 7 4 4 5 5 7 13 10 9 5 9 9 11 9 8 6 6 6
12 5 12 14 14 15 14 8 8 16 13 11 10 9 7 8 8 8 5 5 4 2 5 6 7 8 6 6 8 7 7 7 7 8 5 5 6 7 5 4 6 7 7
14 12 9 16 14 15 15 9 13 15 12 8 10 8 8 9 9 9 8 15 8 10 10 4 5 5 13 12 10 12 16 15 13 7 6 7 7 6 5 4 6 6 6
Wind_Direction
260 266 242 248 194 157 158 173 177 200 202 232 218 228 225 228 233 213 213 216 176 181 182 200 210 201 208 203 189 176 200 206 193 189 254 219 225 232 227 208 194 202 203
244 240 244 248 180 175 180 177 181 183 203 215 229 240 222 225 218 197 189 189 164 175 179 185 203 199 212 193 200 186 180 194 166 201 220 264 253 229 216 191 181 214 226
253 258 257 247 210 202 195 190 190 197 209 219 230 219 231 251 265 185 167 168 164 167 181 181 200 203 204 199 197 184 175 185 215 198 189 257 242 102 178 215 204 210 198
247 255 255 251 239 233 234 205 191 203 212 208 223 228 218 218 220 208 158 154 160 173 171 174 200 229 191 210 184 167 180 196 191 176 221 253 320 253 233 129 213 246 239
260 244 249 248 249 250 241 230 223 211 206 195 208 217 220 209 219 208 138 140 148 151 174 184 200 207 185 203 171 164 191 206 162 173 201 191 219 207 214 275 231 258 255
234 238 240 244 245 242 223 220 213 208 192 191 196 212 218 215 210 135 136 149 155 159 170 178 180 163 192 161 171 185 197 166 198 225 224 176 186 183 162 265 284 242 302
233 217 221 228 227 227 223 208 179 181 181 188 195 199 219 215 228 153 147 143 147 158 161 176 171 180 204 193 174 148 161 180 212 236 195 243 99 105 134 185 248 231 134
226 240 232 244 236 211 195 183 185 178 178 191 203 195 202 191 158 127 130 140 151 167 176 190 180 187 181 165 146 156 178 189 187 173 179 19 122 172 188 187 188 239 203
268 248 237 235 214 232 164 176 196 179 192 180 168 183 190 182 138 126 142 158 171 174 175 187 181 166 169 173 144 186 185 145 160 189 145 91 353 131 254 155 173 198 172
263 249 241 230 215 184 125 138 181 139 150 160 163 171 165 135 140 148 166 170 168 167 171 163 156 172 163 136 157 147 186 158 150 124 166 192 228 240 176 160 171 133 136
258 305 216 214 127 133 126 117 134 146 151 156 145 142 130 124 132 137 138 134 153 141 149 150 155 159 134 132 150 276 177 166 146 168 186 223 215 233 200 136 95 111 135
146 281 119 148 164 146 144 150 153 119 108 110 109 112 115 107 114 123 129 128 140 153 155 150 142 145 150 152 170 197 190 165 179 181 197 209 193 213 221 136 153 159 171
230 210 209 192 159 145 150 145 116 114 112 115 126 120 115 120 122 127 135 130 137 130 131 135 159 167 166 173 180 182 210 204 211 206 213 218 185 197 190 157 162 155 153
175 186 243 237 137 139 121 127 130 130 133 133 122 122 124 125 128 127 121 124 126 125 127 163 185 166 107 135 179 185 206 214 190 269 215 238 184 181 191 181 159 145 131
226 238 279 131 122 119 139 125 136 148 139 124 120 122 121 120 124 126 133 133 136 149 172 122 87 74 64 30 33 96 104 127 166 219 160 321 169 111 123 164 140 135 130
343 303 355 38 157 139 153 139 126 127 131 136 145 145 145 133 125 130 139 139 161 95 80 83 88 82 75 51 54 27 144 136 151 166 157 127 115 92 91 79 153 142 136
266 324 205 141 169 131 126 117 121 125 126 132 139 139 131 106 107 115 137 138 96 100 96 86 98 97 90 60 59 24 72 98 125 136 169 128 109 112 101 93 81 99 127
197 35 274 180 39 148 118 116 122 133 144 153 146 113 111 113 122 147 147 109 104 92 84 97 107 95 78 64 69 66 72 76 58 55 61 112 114 106 126 127 104 103 90
180 204 244 180 247 122 121 135 145 152 145 109 116 125 128 137 152 158 126 115 110 129 115 103 109 104 92 52 76 75 81 71 66 58 36 97 94 82 57 116 99 86 73
157 199 206 210 97 127 138 152 160 139 120 138 144 139 151 165 141 128 118 119 145 134 119 106 97 98 108 84 88 96 94 95 70 61 67 62 96 84 104 111 110 104 110
339 201 174 171 170 141 157 173 123 128 129 157 142 144 149 142 126 125 125 157 178 128 122 104 99 103 110 93 104 103 112 130 110 83 91 79 86 104 103 108 116 120 116
341 165 172 162 182 153 180 123 120 126 141 122 119 116 130 126 131 127 149 157 122 119 127 113 115 105 93 65 93 111 101 108 131 111 78 93 92 98 97 100 114 110 110
248 205 167 161 157 173 131 121 139 160 123 116 123 117 114 112 139 149 163 143 147 158 154 133 131 114 96 78 77 73 89 51 96 97 95 104 96 90 85 116 114 115 116
244 185 140 160 156 158 130 138 145 130 123 137 123 133 127 137 142 146 152 181 168 118 135 131 130 119 127 130 119 116 97 86 87 102 103 92 80 91 115 118 118 119 130
121 207 176 154 161 126 129 132 138 122 124 120 134 144 136 105 78 64 3 84 40 352 142 134 141 138 148 151 137 136 120 115 114 113 115 110 107 122 141 149 138 139 141
146 217 280 141 154 130 135 159 119 125 129 149 158 160 145 145 131 116 89 38 36 47 52 133 158 136 126 117 102 113 114 137 157 144 130 123 137 152 157 151 150 149 160